Dewpoint
53 53 53 53 53 54 54 55 55 55 55 56 56 55 56 57 57 57 58 58 58 59 59 59 60 60 60 61 61 61 60 59 54 49 41 50 58 63 67 68 67 66 65 48 40 33 24 24 22 21 31 40 46 41 44 46 39 42 36 27 26 20 19 22 20 22 26 23 19 19 19 20 19 22 25 25 23 23 22 23 26 28 29 29 31 34 35 38
52 52 53 53 53 54 55 54 55 55 55 55 56 56 56 56 57 57 58 58 58 59 59 59 60 60 60 61 61 61 59 59 52 40 38 61 67 67 67 66 67 65 59 43 35 25 21 23 22 23 31 34 44 38 41 42 42 42 32 22 22 25 24 21 21 22 21 21 20 22 23 22 22 24 25 22 20 20 19 23 25 27 28 29 30 32 33 33
51 53 52 54 53 53 54 55 55 55 55 55 55 56 56 56 57 58 58 58 58 58 59 59 60 60 60 61 60 60 59 59 53 37 50 63 67 67 65 65 64 65 49 37 30 24 23 21 20 17 27 23 33 36 39 41 38 35 30 30 25 27 23 21 22 23 23 23 22 22 24 22 23 25 25 24 19 21 20 22 24 26 28 28 30 32 32 33
52 52 52 53 53 53 53 55 54 55 54 55 55 56 56 56 57 58 58 58 58 58 59 59 60 60 60 60 60 59 59 59 43 40 58 64 66 64 63 61 62 60 52 43 32 28 25 22 20 21 32 28 30 33 35 39 36 30 27 28 29 18 23 21 23 23 23 23 23 23 23 23 23 24 24 22 20 19 21 26 22 23 27 29 30 32 31 32
53 53 53 53 53 53 53 53 55 55 54 55 55 56 55 57 57 57 58 58 58 58 59 59 59 60 60 60 60 58 57 45 39 51 54 65 65 61 61 60 61 52 42 35 28 26 25 23 23 29 37 22 28 25 21 33 34 35 22 25 22 18 25 22 24 26 25 26 23 24 23 23 24 26 24 22 18 20 27 28 28 28 28 29 29 31 32 32
52 52 53 53 53 53 54 53 53 55 55 54 55 56 56 57 57 58 58 58 58 58 58 59 59 59 60 60 57 57 56 23 31 52 64 64 64 61 59 59 61 49 38 31 28 32 27 24 26 29 18 14 19 20 22 24 32 26 24 22 23 23 24 24 24 29 25 25 24 23 24 24 24 22 22 22 20 27 29 28 28 28 29 30 31 31 32 35
53 53 53 53 53 53 53 54 53 54 55 55 55 56 57 57 57 57 57 58 58 58 58 59 59 60 60 57 57 51 46 33 51 58 62 63 63 60 62 61 60 46 35 31 28 32 37 26 30 28 21 20 16 17 23 25 29 28 20 22 24 25 22 26 25 29 24 25 24 25 26 24 23 20 23 21 27 27 28 28 28 28 29 30 30 32 33 34
54 54 53 52 53 53 53 54 54 54 55 55 55 56 57 57 57 57 57 58 58 58 58 59 59 59 59 55 57 51 48 40 50 55 59 61 58 53 54 51 43 49 36 31 30 29 31 27 23 26 21 17 23 20 28 25 23 25 23 25 26 26 24 25 24 25 25 24 23 27 25 22 22 21 23 22 28 28 28 28 28 28 29 29 30 32 33 35
54 54 54 53 52 53 53 53 53 54 54 55 56 56 57 57 57 57 57 58 58 58 58 59 59 59 59 54 49 39 40 54 54 54 59 58 49 44 53 45 38 34 32 32 32 34 38 33 28 23 18 18 21 21 23 21 27 26 25 25 25 24 24 23 24 24 24 25 25 24 23 23 23 24 22 22 27 27 28 28 28 28 28 28 29 30 31 32
54 54 54 54 54 53 52 53 53 54 55 55 56 56 56 57 57 57 57 58 58 58 58 59 59 59 54 53 51 33 53 49 55 52 56 49 44 45 42 43 36 31 32 32 35 33 36 29 34 31 34 24 26 22 25 26 23 26 24 26 24 24 25 26 23 23 24 25 24 23 22 22 23 22 19 27 27 28 27 27 28 28 28 28 29 30 31 32
55 54 54 54 55 54 53 52 53 53 54 55 55 56 56 56 57 57 58 58 58 58 58 59 59 57 54 48 36 25 56 58 55 49 45 49 41 39 48 44 33 36 32 38 35 31 34 31 41 35 39 22 24 23 26 26 26 27 26 24 24 24 25 25 24 23 23 23 23 23 22 24 23 27 20 26 27 27 26 27 27 28 27 28 30 31 35 32
54 54 54 54 55 54 53 53 53 53 53 54 55 56 57 56 56 57 57 58 58 58 59 59 59 55 51 43 34 36 46 54 53 45 50 49 48 52 50 38 36 50 37 33 44 48 46 42 38 26 22 30 22 26 25 26 26 26 25 24 25 25 24 24 23 24 23 24 23 23 21 20 22 20 23 27 27 26 26 26 26 27 27 30 29 30 31 32
56 55 55 55 56 54 53 53 53 53 54 54 55 55 57 56 57 57 58 57 58 58 58 59 59 57 53 37 37 46 47 51 51 46 47 47 45 42 41 47 44 35 41 38 43 47 46 39 34 26 33 26 23 26 30 29 25 27 25 25 24 23 23 24 24 24 23 24 23 22 22 21 20 21 26 26 26 25 25 25 26 27 28 28 29 29 31 33
57 56 56 56 57 54 53 53 54 54 54 55 55 56 57 56 57 58 57 57 58 59 59 59 58 52 47 35 42 51 52 48 43 42 47 50 42 51 48 49 46 37 49 46 42 42 43 31 39 29 29 26 26 36 27 26 27 25 25 25 26 26 26 24 23 22 22 24 22 23 24 20 20 23 26 26 26 25 24 25 26 26 27 28 31 30 32 33
57 57 56 56 57 55 54 53 53 54 54 55 56 57 58 57 57 57 57 57 58 59 58 58 57 56 42 35 48 50 61 52 42 45 50 44 42 49 43 44 46 41 35 35 38 35 32 40 39 26 25 30 30 27 25 25 25 24 26 25 30 26 27 23 24 22 21 23 22 21 28 21 20 21 24 25 25 25 24 24 25 26 26 28 29 29 30 31
56 56 56 56 56 56 55 54 53 53 54 55 57 58 58 57 57 57 58 58 59 59 57 56 57 48 39 34 49 59 54 41 41 50 46 53 53 48 45 45 42 39 35 34 37 38 32 32 30 35 28 30 28 26 27 29 29 26 25 29 29 29 29 25 24 24 27 21 22 21 21 21 19 21 22 24 24 24 23 23 25 26 26 28 29 28 29 31
56 56 56 57 57 56 55 55 54 54 54 55 57 58 58 58 58 58 58 59 58 57 55 48 44 42 30 44 46 44 40 51 52 51 48 45 46 43 41 42 35 34 35 33 34 41 34 30 37 37 31 27 27 33 29 30 29 29 29 27 32 26 23 22 25 25 31 21 20 21 20 20 20 21 22 23 24 23 22 23 24 25 26 27 27 27 29 30
56 56 56 56 56 57 56 54 54 54 55 56 57 57 57 58 58 58 57 56 57 55 53 51 46 45 35 37 33 35 46 45 54 47 49 43 47 38 36 33 33 32 32 31 37 30 38 33 31 31 31 29 27 29 28 26 30 28 30 29 28 26 22 20 24 24 24 22 22 21 21 21 21 20 21 22 23 22 21 22 24 25 26 26 26 27 28 30
57 56 56 55 56 56 56 55 54 54 55 57 58 59 59 58 57 56 53 51 51 48 41 41 41 26 20 35 40 43 50 49 48 49 41 46 47 38 40 35 41 30 34 29 30 30 38 37 39 33 31 29 26 25 27 28 26 24 27 30 28 27 25 22 23 24 23 21 22 22 22 21 21 20 21 21 22 21 20 20 23 26 26 27 27 27 27 30
57 56 56 55 56 56 56 55 54 55 56 55 56 58 58 53 53 49 49 49 43 32 29 38 38 35 37 37 42 43 48 51 41 49 45 49 40 39 34 33 44 35 31 33 35 30 39 33 32 30 30 28 28 27 26 26 25 24 32 33 26 25 24 24 25 25 25 25 23 23 24 23 23 24 21 21 21 21 21 20 22 25 26 27 27 27 27 29
57 57 56 56 56 56 56 56 55 54 55 56 56 54 46 37 37 27 44 45 46 43 38 34 37 32 31 42 45 42 36 38 41 45 46 47 37 33 32 32 33 33 33 33 37 33 36 32 32 32 29 28 27 27 27 26 25 25 31 30 26 32 25 25 26 26 26 27 25 25 25 26 25 25 25 21 21 21 21 21 21 25 26 27 28 28 29 32
57 57 57 57 56 56 56 56 56 55 56 56 56 51 48 48 49 45 46 35 46 45 43 39 35 38 39 41 42 44 43 36 41 45 49 45 36 32 32 31 32 31 33 35 35 35 33 31 31 31 30 29 28 27 28 28 29 31 27 28 29 27 30 26 26 26 27 28 24 25 24 25 25 25 26 25 22 22 22 22 21 25 26 27 28 29 31 34
56 57 56 56 57 57 56 57 56 56 55 55 53 52 51 51 52 52 50 44 40 44 44 42 38 35 37 39 39 41 35 34 33 43 42 47 35 35 32 30 30 30 33 31 32 34 32 33 31 30 29 28 28 28 27 31 33 29 28 28 27 31 30 28 26 26 25 25 24 26 25 25 26 27 27 27 25 23 24 23 25 27 26 27 28 29 31 32
56 56 56 56 57 57 57 57 56 55 54 53 52 51 52 53 54 53 50 41 32 34 40 41 41 38 37 36 39 38 33 33 32 40 43 39 33 38 37 30 29 30 29 30 30 31 30 30 30 30 30 28 27 27 30 27 25 33 32 30 29 32 29 27 26 25 25 25 27 25 26 25 26 26 27 28 29 27 31 32 31 33 34 33 34 33 31 31
56 56 56 56 56 57 57 57 54 52 52 51 51 52 56 57 56 55 50 32 33 36 49 44 49 46 40 47 41 35 35 34 34 39 40 37 34 34 33 32 30 28 28 30 30 30 29 29 34 29 32 29 33 27 30 33 26 28 33 30 28 27 27 27 31 30 29 29 28 29 26 28 30 28 28 28 28 28 29 28 29 30 31 31 30 31 32 35
56 56 56 56 56 55 57 53 51 52 51 50 51 53 54 56 58 54 48 34 25 35 44 39 46 39 44 38 41 40 36 33 40 41 39 39 43 36 33 31 31 29 28 29 28 31 30 32 34 31 32 35 34 29 34 31 28 30 29 35 28 28 32 33 32 30 27 25 29 28 27 26 29 29 30 27 27 27 29 29 28 29 30 31 31 31 31 32
57 56 56 56 56 56 52 49 51 51 49 49 52 54 56 57 58 54 31 26 19 39 37 49 38 39 51 38 37 34 32 31 45 40 40 47 36 38 30 30 31 31 30 32 32 29 29 28 33 35 33 35 33 29 34 29 30 28 37 40 33 32 33 33 33 32 29 32 34 30 31 27 28 29 31 30 27 27 27 27 28 28 29 30 30 31 31 32
57 56 56 56 55 56 52 50 50 50 47 54 53 55 58 58 55 52 38 21 15 39 38 37 43 46 47 38 40 31 34 38 36 37 37 45 39 35 32 29 29 29 29 33 28 38 31 33 35 35 34 32 31 32 36 32 30 33 36 36 35 34 35 36 32 31 31 30 29 29 32 27 27 29 30 30 26 26 26 27 27 28 28 29 30 30 30 31
56 56 56 56 55 56 55 54 49 49 53 55 55 56 56 55 52 41 29 16 42 37 48 35 47 44 40 40 37 35 35 34 32 36 44 39 41 35 31 31 30 29 29 30 28 38 34 36 34 34 33 30 34 35 39 36 30 39 38 37 36 37 34 33 30 30 29 28 28 29 31 27 27 29 29 30 29 26 25 26 26 27 28 28 28 29 30 31
57 56 56 56 55 55 55 55 55 54 56 57 57 56 55 50 45 29 27 19 38 29 38 39 40 37 38 36 36 34 33 34 35 36 37 35 38 42 34 38 33 31 35 29 32 35 33 32 37 34 34 34 32 33 37 37 36 38 37 36 34 33 31 30 30 29 27 27 28 31 31 29 27 30 30 29 29 27 27 26 27 27 28 28 28 29 30 30
56 56 56 55 53 53 54 52 54 55 55 56 55 53 51 48 36 18 21 20 25 39 37 35 36 39 37 36 35 35 34 34 34 35 33 34 32 33 33 33 37 34 31 33 31 35 32 34 36 35 32 33 33 35 36 36 36 37 33 31 31 30 29 27 26 28 26 26 27 30 30 29 26 27 30 27 25 26 25 25 26 26 27 27 28 29 29 30
56 56 56 55 55 56 52 50 55 55 54 54 52 49 43 34 37 24 15 11 23 29 33 33 38 37 36 36 36 34 33 33 34 34 32 32 33 31 31 31 32 29 29 29 29 34 33 33 36 37 38 32 35 33 32 35 35 35 31 30 29 27 26 25 25 23 25 25 22 26 31 29 28 28 28 24 24 25 27 26 26 26 26 27 28 28 29 31
56 56 56 55 55 54 55 57 55 54 53 53 50 48 38 30 24 30 23 15 14 38 38 38 36 35 35 36 35 35 37 32 33 33 35 36 33 33 35 32 34 31 28 31 30 31 32 35 35 37 35 34 34 30 30 28 30 31 29 29 28 26 25 22 25 25 25 25 25 24 30 28 29 27 30 29 28 26 28 29 28 27 27 27 28 28 29 30
56 56 55 55 55 55 56 56 54 54 54 53 50 45 38 27 23 31 25 21 28 39 37 38 36 37 35 33 37 36 33 35 33 33 34 34 33 32 33 33 33 33 35 32 29 31 28 29 34 35 31 34 32 31 31 32 29 28 32 31 30 29 24 22 26 25 24 25 22 26 24 26 24 27 27 25 26 27 27 29 29 29 28 28 28 29 30 30
56 56 55 55 54 56 57 56 54 54 54 51 46 40 30 27 31 27 26 24 24 35 36 38 36 36 35 36 38 35 37 35 34 34 34 34 32 32 32 32 33 34 36 30 33 30 31 31 36 36 37 33 32 34 35 35 30 31 32 34 29 30 29 27 26 24 22 24 22 21 25 25 26 27 28 27 27 27 28 29 28 28 28 29 28 28 29 29
55 55 56 54 53 55 57 56 55 55 53 48 42 35 30 30 28 34 30 27 22 34 35 36 38 35 34 35 38 36 40 36 34 35 34 35 35 33 35 35 33 33 33 29 33 30 30 30 36 36 33 32 32 35 33 36 29 31 32 30 31 34 32 29 26 25 22 23 26 25 24 26 25 25 26 26 26 26 27 27 26 27 28 28 28 28 28 28
54 54 51 53 53 55 56 56 55 54 52 46 39 33 36 34 35 33 32 26 24 33 36 32 36 34 34 35 35 36 38 38 35 34 32 36 33 35 35 35 35 33 34 33 33 37 31 33 36 34 33 31 33 35 36 38 36 31 28 31 35 37 35 29 26 25 25 24 25 25 25 25 24 25 25 25 25 25 26 26 26 27 28 27 28 29 28 28
53 53 51 52 53 55 56 56 54 53 49 44 37 37 39 34 36 32 29 26 26 35 32 29 33 36 34 35 34 35 37 34 34 34 33 33 32 36 35 35 35 34 34 35 32 36 36 29 32 35 35 34 34 35 34 35 37 32 32 37 30 27 26 27 27 24 23 25 25 24 25 26 25 26 23 24 24 24 25 26 26 26 27 27 28 28 28 28
53 52 48 51 55 55 56 55 53 50 45 39 37 37 37 36 34 32 28 25 32 34 30 31 27 35 32 34 35 35 35 32 34 33 32 34 30 36 34 36 36 35 35 35 33 35 36 30 30 33 34 34 33 33 29 30 35 36 35 32 35 29 27 28 28 26 26 25 21 24 26 25 28 26 24 24 24 24 24 26 25 26 27 27 28 29 28 28
51 48 46 52 55 56 56 54 50 47 43 36 38 38 40 36 35 34 30 26 29 33 32 30 30 27 32 30 36 34 36 34 33 33 33 35 33 36 34 36 36 37 35 35 36 39 32 33 29 29 34 32 28 31 30 31 30 29 29 28 30 27 31 29 27 27 26 23 23 24 23 25 28 27 25 24 24 24 25 26 27 26 27 28 28 29 28 28
52 48 47 55 55 56 55 51 45 41 41 41 41 39 39 36 35 34 32 29 31 38 33 33 31 26 29 31 30 36 35 34 35 33 33 34 32 31 37 36 38 36 35 36 36 36 32 32 30 29 28 28 29 32 32 32 32 31 30 29 30 29 27 25 25 28 27 26 24 21 23 24 28 25 25 24 24 25 26 26 27 27 27 28 29 28 28 28
49 42 46 54 55 55 51 43 42 44 42 39 39 41 40 41 37 35 33 31 30 28 34 33 36 33 31 29 31 36 36 34 35 34 34 32 34 32 37 37 36 36 35 34 34 37 37 34 32 29 29 29 31 35 34 32 36 34 31 31 32 30 28 28 25 27 26 27 26 26 24 25 26 28 26 25 27 26 26 27 28 28 27 27 28 28 28 28
47 45 56 55 55 53 48 42 43 42 40 41 42 41 46 41 37 37 34 32 31 29 30 34 32 34 34 31 32 36 36 34 36 34 35 35 34 33 40 36 37 36 36 34 37 36 37 32 31 32 34 35 31 35 36 34 35 32 32 33 32 30 30 29 28 26 27 26 26 26 23 25 27 32 28 27 27 27 28 29 28 28 27 27 28 28 28 28
48 48 50 55 54 53 46 37 38 39 41 41 42 41 43 43 41 38 36 33 31 30 28 31 35 32 33 36 34 34 37 32 37 35 34 37 35 36 37 36 36 36 35 34 33 37 32 32 32 31 30 30 30 31 31 31 31 29 29 31 32 32 33 31 29 28 25 27 27 26 23 26 31 30 28 25 25 25 26 28 29 29 28 28 28 29 29 29
48 48 49 51 54 51 43 44 41 39 39 39 40 39 40 42 44 43 39 35 33 32 33 30 32 37 33 35 35 36 40 34 31 37 35 37 37 41 37 38 37 35 37 39 39 39 35 33 32 30 28 27 26 26 27 28 28 29 31 31 32 32 32 30 28 28 26 28 28 26 26 28 26 27 26 25 25 24 26 28 29 30 29 28 29 29 29 29
44 39 44 46 50 49 47 46 44 42 39 39 38 39 40 39 42 44 45 43 36 36 34 36 36 37 36 34 32 34 35 37 35 33 36 35 39 37 41 37 37 37 39 39 38 37 33 33 34 34 31 29 30 30 32 32 28 27 28 29 30 32 32 32 30 28 27 28 28 28 28 28 26 25 24 25 25 24 25 26 28 29 30 30 29 30 30 29
45 42 40 37 45 47 45 47 45 43 40 40 36 38 38 39 40 41 46 42 42 38 37 37 38 37 36 34 32 32 35 35 37 35 36 35 39 39 39 41 37 39 38 37 37 34 32 32 34 34 33 33 33 32 35 32 29 29 29 28 30 31 31 31 29 28 30 27 26 29 30 29 29 26 25 25 26 25 26 26 27 30 30 30 30 30 32 29
40 42 44 44 41 37 41 42 45 43 42 41 38 39 37 38 39 38 43 44 43 42 41 41 41 38 36 35 34 31 32 34 35 34 35 36 36 37 35 38 36 38 36 35 37 33 32 31 33 34 33 34 34 33 34 33 31 30 30 30 29 30 31 30 30 30 30 28 27 29 30 29 29 29 27 26 26 25 25 26 26 29 30 31 30 29 29 29
43 42 43 46 41 40 39 43 45 44 42 41 39 38 37 37 37 39 40 42 43 42 42 37 39 39 37 36 35 33 34 33 33 36 34 34 35 34 32 35 36 37 35 33 36 36 32 31 33 34 33 33 33 34 34 34 32 32 32 31 30 30 30 30 30 30 31 30 30 30 31 30 30 30 29 27 28 27 27 27 27 29 30 30 30 30 29 29
40 41 37 43 43 42 40 41 41 42 41 41 37 37 38 37 37 38 40 41 39 40 43 40 39 40 40 38 37 34 34 35 34 33 36 35 34 35 34 35 33 34 34 33 35 35 33 30 34 33 32 32 33 34 34 34 33 32 33 33 32 31 30 30 30 30 31 31 31 30 30 30 31 31 30 29 31 29 28 27 27 29 30 30 30 30 29 29
43 42 44 42 38 39 40 39 40 39 36 40 38 38 38 38 38 39 39 41 40 39 41 41 40 40 40 40 39 38 38 37 37 36 37 37 34 37 35 35 35 33 34 33 32 32 35 32 33 33 31 31 33 33 33 33 33 33 32 33 32 32 30 30 30 31 30 29 30 30 30 29 30 31 31 29 28 27 27 27 29 30 30 29 29 29 29 29
43 43 43 43 37 38 37 37 39 38 33 37 40 39 39 38 39 41 39 41 41 42 42 42 41 41 40 40 40 40 40 40 40 41 41 41 40 39 38 40 37 35 33 33 34 33 34 32 32 32 30 30 32 32 32 32 32 31 32 32 33 32 32 32 31 31 31 31 29 29 29 30 31 32 29 29 28 28 28 28 30 30 30 29 29 29 29 29